Location: Twentynine Palms Airport
(34.1316°N, 115.9458°W)
Time: 09:26:19
(UTC-08:00)

Amateur Radio Satellites - All Passes

Search period start: 24 January 2017 08:56
Search period end: 25 January 2017 08:56
Location: Twentynine Palms Airport, 34.1316°N, 115.9458°W

Satellite Date Start Highest point End Downlink Frequencies (MHz)
Time Altitude Azimuth
AAUSAT CUBESAT 2 24 Jan 08:56:24 08:59:39 23° 289° (WNW) 09:02:55 437.432
UWE-3 24 Jan 08:59:45 09:03:37 30° 288° (WNW) 09:07:34 435.000/436.395/437.385
ZACube-1 24 Jan 09:08:11 09:12:20 40° 286° (WNW) 09:16:34 437.345
JAS-2 24 Jan 09:09:28 09:13:57 27° 66° (ENE) 09:18:48 435.910
HO-68 24 Jan 09:10:53 09:15:41 20° 300° (WNW) 09:20:28 435.675
PRISM 24 Jan 09:18:15 09:21:17 20° 264° (W) 09:24:20 437.425
UNISAT 6 24 Jan 09:26:15 09:30:26 60° 259° (W) 09:34:39 437.425
PCSat 24 Jan 09:29:39 09:34:52 48° 249° (WSW) 09:40:03 145.827
DELFI C3 24 Jan 09:33:27 09:37:26 74° 283° (WNW) 09:41:21 145.870
Oscar 11 24 Jan 09:36:54 09:40:20 23° 290° (WNW) 09:43:44 145.826/435.025
TIGRISAT 24 Jan 09:38:19 09:42:24 46° 261° (W) 09:46:30 435.000
ANTELSAT 24 Jan 09:55:16 09:58:53 27° 263° (W) 10:02:31 437.575/2403.000
QB50P1 24 Jan 09:59:22 10:02:43 24° 71° (ENE) 10:06:05 145.935-145.965
POLYITAN 1 24 Jan 10:04:46 10:08:19 28° 71° (ENE) 10:11:54 437.675
QB50P2 24 Jan 10:06:01 10:09:43 31° 72° (ENE) 10:13:26 145.880/145.840
HUMSAT D 24 Jan 10:15:21 10:19:28 45° 286° (WNW) 10:23:33 437.325/437.525
POPSAT HIP 1 24 Jan 10:25:58 10:30:00 49° 74° (ENE) 10:34:03 437.405
DUCHIFAT 1 24 Jan 10:31:03 10:35:03 48° 75° (ENE) 10:39:04 145.980
NANOSAT C BR1 24 Jan 10:38:52 10:43:01 69° 75° (ENE) 10:47:10 145.865
ESTCUBE 1 24 Jan 10:44:38 10:48:54 39° 99° (E) 10:53:06 437.505/2401.250
BY70-1 24 Jan 10:46:36 10:49:40 78° 281° (W) 10:52:28 436.1900
Cosmos 2491 24 Jan 10:46:54 10:51:14 14° 65° (ENE) 10:55:34 435.465 / 435.565
BUGSAT 1 24 Jan 10:47:59 10:51:16 24° 71° (ENE) 10:54:33 437.445
JAS-2 24 Jan 10:54:09 10:58:52 32° 264° (W) 11:04:01 435.910
CUBEBUG 1 24 Jan 11:11:03 11:15:11 44° 99° (E) 11:19:18 437.445
AO-85 24 Jan 11:25:44 11:29:56 30° 113° (ESE) 11:33:53 145.980
JUGNU 24 Jan 11:33:22 11:36:46 16° 170° (S) 11:40:11 437.505
QB50P1 24 Jan 11:35:07 11:38:23 22° 264° (W) 11:41:39 145.935-145.965
50 SAT 24 Jan 11:35:31 11:38:47 34° 99° (E) 11:41:59 437.505
AISAT 24 Jan 11:39:25 11:43:44 60° 101° (E) 11:48:03 437.250
POLYITAN 1 24 Jan 11:41:08 11:44:05 19° 265° (W) 11:47:03 437.675
QB50P2 24 Jan 11:42:49 11:45:32 17° 266° (W) 11:48:15 145.880/145.840
Gurwin Techsat 1B 24 Jan 11:44:05 11:47:18 16° 65° (ENE) 11:50:30 435.225
POPSAT HIP 1 24 Jan 12:05:25 12:06:01 10° 268° (W) 12:06:36 437.405
SPROUT 24 Jan 12:06:56 12:11:11 89° 292° (WNW) 12:15:28 437.525
DUCHIFAT 1 24 Jan 12:10:12 12:10:57 10° 268° (W) 12:11:41 145.980
VELOX 1 24 Jan 12:12:33 12:16:52 57° 285° (WNW) 12:21:09 145.980
CUSAT 1 24 Jan 12:15:13 12:21:39 27° 69° (ENE) 12:27:25 437.405
UKube-1 24 Jan 12:19:19 12:23:31 51° 101° (E) 12:27:41 .
AIST 1 24 Jan 12:21:18 12:25:04 29° 90° (E) 12:28:49
ESTCUBE 1 24 Jan 12:22:33 12:25:20 16° 293° (WNW) 12:28:06 437.505/2401.250
BUGSAT 1 24 Jan 12:23:34 12:26:33 20° 264° (W) 12:29:32 437.445
DX 1 24 Jan 12:29:20 12:33:40 82° 286° (WNW) 12:37:59 434.975-435.025
Oscar 19 24 Jan 12:30:24 12:35:36 88° 258° (WSW) 12:40:50 437.125/150
YUBILEINY 24 Jan 12:40:14 12:48:17 42° 88° (E) 12:56:23 435.215
Cosmos 2491 24 Jan 12:40:27 12:49:18 85° 84° (E) 12:58:09 435.465 / 435.565
CUBEBUG 1 24 Jan 12:48:59 12:51:02 13° 293° (WNW) 12:53:05 437.445
Cosmos 2504 24 Jan 12:57:35 13:04:34 28° 86° (E) 13:11:12 435.465 / 435.565
AO-85 24 Jan 13:06:24 13:10:18 25° 305° (NW) 13:14:00 145.980
50 SAT 24 Jan 13:10:42 13:11:36 11° 292° (WNW) 13:12:30 437.505
SRMSAT 24 Jan 13:12:26 13:14:49 12° 165° (SSE) 13:17:11 437.500
TISAT 1 24 Jan 13:18:29 13:22:40 78° 101° (E) 13:26:51 437.305
AISAT 24 Jan 13:18:58 13:19:38 10° 295° (WNW) 13:20:18 437.250
JUGNU 24 Jan 13:20:59 13:25:05 20° 180° (S) 13:29:11 437.505
Gurwin Techsat 1B 24 Jan 13:21:34 13:26:44 54° 260° (W) 13:31:57 435.225
ITAMSAT 1 24 Jan 13:24:19 13:28:42 29° 69° (ENE) 13:33:06 435.822/435.867
AO-7 24 Jan 13:37:13 13:44:51 42° 64° (ENE) 13:52:30 29.400- 29.500
DANDE 24 Jan 13:49:10 13:57:13 55° 78° (ENE) 14:05:09 436.750
CUSAT 1 24 Jan 13:56:24 14:03:57 54° 269° (W) 14:10:28 437.405
UKube-1 24 Jan 13:57:34 13:59:03 12° 295° (WNW) 14:00:32 .
AIST 1 24 Jan 13:59:38 14:02:38 18° 284° (WNW) 14:05:39
ITUPSAT 1 24 Jan 14:04:06 14:08:40 41° 99° (E) 14:13:10 437.325
BEESAT 2 24 Jan 14:07:33 14:10:07 17° 110° (ESE) 14:12:42 435.950
SO-50 24 Jan 14:18:25 14:20:52 14° 48° (NE) 14:23:19 436.795
BEESAT 24 Jan 14:35:22 14:40:10 86° 284° (WNW) 14:44:58 436.000
YUBILEINY 24 Jan 14:37:06 14:45:02 37° 285° (WNW) 14:53:03 435.215
SWISSCUBE 24 Jan 14:37:32 14:42:20 72° 285° (WNW) 14:47:05 437.505
Cosmos 2491 24 Jan 14:40:13 14:44:53 16° 281° (W) 14:49:36 435.465 / 435.565
BEESAT 3 24 Jan 14:48:33 14:52:20 53° 301° (WNW) 14:56:12 437.485
Cosmos 2504 24 Jan 14:49:07 14:57:29 52° 280° (W) 15:05:24 435.465 / 435.565
O/OREOS (USA 219) 24 Jan 14:55:08 14:59:33 54° 68° (ENE) 15:03:59 437.305
SRMSAT 24 Jan 14:59:09 15:03:16 19° 175° (S) 15:07:24 437.500
ITAMSAT 1 24 Jan 15:03:41 15:08:03 28° 263° (W) 15:12:28 435.822/435.867
BRITE-PL 24 Jan 15:09:44 15:14:33 29° 70° (ENE) 15:19:18 437.365/2234.400
JUGNU 24 Jan 15:09:59 15:13:24 16° 190° (S) 15:16:50 437.505
MOZHAYETS 4 24 Jan 15:26:30 15:31:10 78° 284° (WNW) 15:35:48
AO-7 24 Jan 15:29:51 15:37:30 39° 260° (W) 15:45:13 29.400- 29.500
KKS-1 24 Jan 15:32:14 15:36:12 32° 98° (E) 15:40:08 437.445
DANDE 24 Jan 15:32:37 15:39:30 31° 273° (W) 15:46:19 436.750
HORYU 2 24 Jan 15:36:46 15:39:51 19° 68° (ENE) 15:42:56 437.375
ITUPSAT 1 24 Jan 15:42:56 15:46:07 18° 293° (WNW) 15:49:18 437.325
BEESAT 2 24 Jan 15:44:06 15:47:37 31° 304° (NW) 15:51:11 435.950
NOAA 15 24 Jan 15:48:33 15:49:49 11° 62° (ENE) 15:51:06 137.62
Cubesat XI-IV 24 Jan 15:55:49 15:57:54 12° 63° (ENE) 16:00:01 437.490
SO-50 24 Jan 15:57:17 16:01:40 57° 244° (WSW) 16:06:02 436.795
M-CUBED/EXP-1 PRIME 24 Jan 16:06:59 16:10:16 83° 108° (ESE) 16:13:31 437.505
STARS 24 Jan 16:11:58 16:16:04 39° 99° (E) 16:20:10 437.465
CUBESAT XI-V 24 Jan 16:25:03 16:29:41 63° 101° (E) 16:34:16 437.345
GOMX 1 24 Jan 16:26:53 16:32:12 66° 76° (ENE) 16:37:16 467.674
NOAA 18 24 Jan 16:37:11 16:40:50 18° 65° (ENE) 16:44:29 137.9125
O/OREOS (USA 219) 24 Jan 16:37:16 16:38:24 11° 262° (W) 16:39:32 437.305
AUBIESAT-1 24 Jan 16:39:38 16:42:45 39° 290° (WNW) 16:45:52 437.475
DOVE 4 24 Jan 16:42:29 16:46:56 34° 73° (ENE) 16:51:09 437.250
AIST 2 24 Jan 16:47:32 16:50:15 17° 109° (ESE) 16:53:01 435.215
CUTE-I 24 Jan 16:47:36 16:52:34 42° 71° (ENE) 16:57:32 437.470
SRMSAT 24 Jan 16:47:40 16:51:47 19° 185° (S) 16:55:54 437.500
BRITE-PL 24 Jan 16:47:45 16:52:49 33° 263° (W) 16:57:51 437.365/2234.400
Cosmos 2499 24 Jan 17:01:28 17:04:18 12° 80° (E) 17:07:04 435.465 / 435.565
LilacSat-2 24 Jan 17:02:07 17:05:49 60° 76° (ENE) 17:09:34 437.200
KKS-1 24 Jan 17:09:23 17:12:29 19° 292° (WNW) 17:15:36 437.445
HORYU 2 24 Jan 17:12:13 17:16:07 32° 262° (W) 17:20:05 437.375
NOAA 15 24 Jan 17:23:32 17:28:50 82° 257° (WSW) 17:34:10 137.62
GONETS M04 24 Jan 17:31:25 17:36:52 19° 80° (E) 17:42:19
Cubesat XI-IV 24 Jan 17:32:01 17:37:18 72° 258° (WSW) 17:42:38 437.490
CUTE 1.7 + AOD 2 24 Jan 17:35:28 17:37:28 13° 67° (ENE) 17:39:29 437.475
CINEMA 3 24 Jan 17:36:48 17:40:27 26° 72° (ENE) 17:43:59 145.822/145.860
HO-68 24 Jan 17:46:18 17:52:42 36° 66° (ENE) 17:59:06 435.675
STARS 24 Jan 17:49:30 17:52:03 15° 293° (WNW) 17:54:36 437.465
COMPASS 1 24 Jan 18:03:12 18:04:29 11° 66° (ENE) 18:05:46 437.405
CANX-2 24 Jan 18:03:41 18:07:30 33° 73° (ENE) 18:11:21 2200.000
CUBESAT XI-V 24 Jan 18:05:09 18:06:27 11° 295° (WNW) 18:07:44 437.345
SEEDS 24 Jan 18:05:20 18:08:21 19° 70° (ENE) 18:11:23 437.485
GOMX 1 24 Jan 18:08:20 18:10:31 12° 268° (W) 18:12:38 467.674
NOAA 18 24 Jan 18:15:42 18:21:02 51° 259° (W) 18:26:22 137.9125
DOVE 4 24 Jan 18:20:59 18:24:36 20° 264° (W) 18:28:05 437.250
ISS 24 Jan 18:22:24 18:23:20 11° 126° (SE) 18:24:15 145.825
AIST 2 24 Jan 18:24:43 18:28:26 33° 304° (NW) 18:32:13 435.215
CUTE-I 24 Jan 18:28:56 18:32:43 20° 265° (W) 18:36:32 437.470
STRAND 1 24 Jan 18:29:36 18:34:15 34° 98° (E) 18:38:52 437.568
SRMSAT 24 Jan 18:37:56 18:40:15 12° 195° (SSW) 18:42:33 437.500
Cosmos 2499 24 Jan 18:47:55 18:56:22 85° 95° (E) 19:04:12 435.465 / 435.565
Oscar 11 24 Jan 18:53:27 18:55:21 13° 67° (ENE) 18:57:16 145.826/435.025
CUTE 1.7 + AOD 2 24 Jan 19:08:50 19:12:53 43° 262° (W) 19:16:57 437.475
CINEMA 3 24 Jan 19:14:14 19:17:31 21° 264° (W) 19:20:44 145.822/145.860
GONETS M04 24 Jan 19:23:55 19:32:36 76° 277° (W) 19:41:23
HO-68 24 Jan 19:33:43 19:40:15 38° 261° (W) 19:46:52 435.675
FUNcube-1 24 Jan 19:34:07 19:37:58 40° 74° (ENE) 19:41:53 145.935
CUBEBUG 2 24 Jan 19:34:40 19:38:44 55° 259° (W) 19:42:49 437.445
COMPASS 1 24 Jan 19:35:28 19:39:31 50° 260° (W) 19:43:37 437.405
SEEDS 24 Jan 19:40:11 19:43:48 28° 263° (W) 19:47:29 437.485
CANX-2 24 Jan 19:40:46 19:43:24 16° 266° (W) 19:46:04 2200.000
AAUSAT CUBESAT 2 24 Jan 19:41:34 19:45:40 57° 260° (W) 19:49:48 437.432
UWE-3 24 Jan 19:52:34 19:56:37 56° 260° (W) 20:00:42 435.000/436.395/437.385
ISS 24 Jan 19:56:15 19:59:26 51° 319° (NW) 20:02:38 145.825
ZACube-1 24 Jan 19:59:52 20:03:59 83° 256° (WSW) 20:08:10 437.345
STRAND 1 24 Jan 20:09:07 20:13:12 24° 292° (WNW) 20:17:15 437.568
DELFI C3 24 Jan 20:15:10 20:18:49 35° 73° (ENE) 20:22:29 145.870
Oscar 11 24 Jan 20:26:54 20:31:01 46° 261° (W) 20:35:13 145.826/435.025
Cosmos 2499 24 Jan 20:45:39 20:50:11 16° 291° (WNW) 20:54:36 435.465 / 435.565
RS-15 24 Jan 20:55:41 21:05:30 33° 104° (ESE) 21:15:40 29.354- 29.394
PRISM 24 Jan 21:01:58 21:06:04 73° 102° (ESE) 21:10:07 437.425
HUMSAT D 24 Jan 21:02:16 21:06:21 72° 76° (ENE) 21:10:30 437.325/437.525
FUNcube-1 24 Jan 21:12:45 21:14:23 12° 268° (W) 21:16:02 145.935
UNISAT 6 24 Jan 21:21:17 21:25:26 36° 98° (E) 21:29:40 437.425
GONETS M04 24 Jan 21:28:06 21:30:55 12° 297° (WNW) 21:33:45
TIGRISAT 24 Jan 21:32:53 21:37:13 45° 99° (E) 21:41:38 435.000
AO-85 24 Jan 21:40:22 21:44:15 81° 243° (WSW) 21:48:12 145.980
ESTCUBE 1 24 Jan 21:40:49 21:44:26 24° 70° (ENE) 21:48:03 437.505/2401.250
ANTELSAT 24 Jan 21:49:18 21:53:49 77° 102° (ESE) 21:58:26 437.575/2403.000
DELFI C3 24 Jan 21:51:39 21:53:41 14° 267° (W) 21:55:45 145.870
CUBEBUG 1 24 Jan 22:03:38 22:07:10 24° 70° (ENE) 22:10:39 437.445
JAS-2 24 Jan 22:04:49 22:11:58 44° 98° (E) 22:19:22 435.910
POPSAT HIP 1 24 Jan 22:16:57 22:17:53 11° 92° (E) 22:18:48 437.405
DUCHIFAT 1 24 Jan 22:22:03 22:22:11 10° 92° (E) 22:22:20 145.980
PCSat 24 Jan 22:24:27 22:29:21 37° 109° (ESE) 22:34:18 145.827
BY70-1 24 Jan 22:26:20 22:29:08 34° 262° (W) 22:32:06 436.1900
NANOSAT C BR1 24 Jan 22:28:15 22:30:35 14° 94° (E) 22:32:54 145.865
AISAT 24 Jan 22:33:02 22:36:59 33° 72° (ENE) 22:40:58 437.250
PHONESAT 2.4 24 Jan 22:42:55 22:45:05 70° 155° (SSE) 22:47:17 2401.200-2431.200
SPROUT 24 Jan 22:56:30 23:00:29 40° 73° (ENE) 23:04:28 437.525
YUBILEINY 24 Jan 22:56:48 23:01:46 16° 66° (ENE) 23:06:42 435.215
UNISAT 6 24 Jan 22:58:49 23:01:52 18° 291° (WNW) 23:04:56 437.425
RS-15 24 Jan 23:05:22 23:17:04 65° 303° (WNW) 23:29:20 29.354- 29.394
VELOX 1 24 Jan 23:05:33 23:09:59 77° 77° (ENE) 23:14:26 145.980
BEESAT 3 24 Jan 23:09:06 23:12:27 25° 55° (NE) 23:15:47 437.485
UKube-1 24 Jan 23:10:22 23:13:59 27° 71° (ENE) 23:17:37 .
TIGRISAT 24 Jan 23:11:03 23:13:30 15° 293° (WNW) 23:15:58 435.000
ESTCUBE 1 24 Jan 23:17:17 23:21:04 26° 264° (W) 23:24:54 437.505/2401.250
DX 1 24 Jan 23:20:50 23:25:04 51° 74° (ENE) 23:29:18 434.975-435.025
QB50P1 24 Jan 23:22:11 23:26:25 76° 101° (ESE) 23:30:39 145.935-145.965
POLYITAN 1 24 Jan 23:28:00 23:32:16 90° 217° (SW) 23:36:32 437.675
QB50P2 24 Jan 23:29:28 23:33:43 80° 285° (WNW) 23:37:58 145.880/145.840
50 SAT 24 Jan 23:38:57 23:42:24 46° 260° (W) 23:45:52 437.505
CUBEBUG 1 24 Jan 23:39:42 23:43:18 25° 264° (W) 23:46:54 437.445
Cosmos 2491 24 Jan 23:43:58 23:49:26 19° 80° (E) 23:54:54 435.465 / 435.565
POPSAT HIP 1 24 Jan 23:49:46 23:53:52 49° 285° (WNW) 23:57:58 437.405
JAS-2 24 Jan 23:50:04 23:56:43 36° 292° (WNW) 00:03:38 435.910
DUCHIFAT 1 24 Jan 23:54:01 23:58:06 51° 285° (WNW) 00:02:11 145.980
NANOSAT C BR1 25 Jan 00:02:30 00:06:23 36° 287° (WNW) 00:10:16 145.865
BEESAT 2 25 Jan 00:04:45 00:08:38 43° 58° (ENE) 00:12:29 435.950
TISAT 1 25 Jan 00:06:25 00:10:10 33° 72° (ENE) 00:13:55 437.305
BUGSAT 1 25 Jan 00:07:28 00:11:32 72° 101° (ESE) 00:15:37 437.445
PCSat 25 Jan 00:08:18 00:12:46 26° 305° (NW) 00:17:17 145.827
AIST 1 25 Jan 00:08:48 00:13:04 75° 84° (E) 00:17:17
AISAT 25 Jan 00:10:27 00:13:28 18° 265° (W) 00:16:30 437.250
PHONESAT 2.4 25 Jan 00:17:12 00:18:55 20° 349° (NNW) 00:20:39 2401.200-2431.200
SPROUT 25 Jan 00:34:32 00:36:32 13° 267° (W) 00:38:32 437.525
Oscar 19 25 Jan 00:45:58 00:50:53 43° 99° (E) 00:55:45 437.125/150
Cosmos 2504 25 Jan 00:46:38 00:53:30 44° 78° (ENE) 01:00:14 435.465 / 435.565
UKube-1 25 Jan 00:46:40 00:49:57 21° 264° (W) 00:53:14 .
BEESAT 3 25 Jan 00:46:49 00:49:55 22° 249° (WSW) 00:52:59 437.485
YUBILEINY 25 Jan 00:50:49 00:59:40 88° 265° (W) 01:08:25 435.215
DX 1 25 Jan 01:00:16 01:01:29 11° 267° (W) 01:02:42 434.975-435.025
ITUPSAT 1 25 Jan 01:07:20 01:11:30 31° 71° (ENE) 01:15:42 437.325
CUSAT 1 25 Jan 01:11:45 01:16:04 24° 84° (E) 01:21:13 437.405
RS-15 25 Jan 01:24:18 01:32:40 20° 330° (NNW) 01:41:12 29.354- 29.394
Cosmos 2491 25 Jan 01:36:32 01:45:13 75° 277° (W) 01:53:58 435.465 / 435.565
BEESAT 25 Jan 01:37:47 01:42:30 71° 75° (ENE) 01:47:14 436.000
SWISSCUBE 25 Jan 01:39:57 01:44:41 85° 77° (ENE) 01:49:29 437.505
Gurwin Techsat 1B 25 Jan 01:41:23 01:46:43 82° 103° (ESE) 01:52:02 435.225
ITAMSAT 1 25 Jan 01:42:13 01:44:42 13° 93° (E) 01:47:11 435.822/435.867
TISAT 1 25 Jan 01:43:22 01:45:51 15° 266° (W) 01:48:20 437.305
BEESAT 2 25 Jan 01:44:18 01:45:59 12° 252° (WSW) 01:47:41 435.950
AO-7 25 Jan 01:45:26 01:49:33 14° 92° (E) 01:53:38 29.400- 29.500
PHONESAT 2.4 25 Jan 01:51:32 01:53:03 16° 5° (N) 01:54:35 2401.200-2431.200
MOZHAYETS 4 25 Jan 02:24:19 02:28:49 63° 75° (ENE) 02:33:22
Oscar 19 25 Jan 02:26:17 02:29:49 19° 294° (WNW) 02:33:20 437.125/150
ISS 25 Jan 02:27:10 02:30:02 28° 37° (NE) 02:32:54 145.825
KKS-1 25 Jan 02:27:17 02:30:26 19° 69° (ENE) 02:33:36 437.445
Cosmos 2504 25 Jan 02:40:43 02:46:26 26° 275° (W) 02:52:06 435.465 / 435.565
ITUPSAT 1 25 Jan 02:45:40 02:49:18 22° 264° (W) 02:52:59 437.325
M-CUBED/EXP-1 PRIME 25 Jan 02:48:42 02:52:56 56° 71° (ENE) 02:56:53 437.505
AIST 2 25 Jan 02:48:55 02:53:03 48° 59° (ENE) 02:57:08 435.215
YUBILEINY 25 Jan 02:51:10 02:55:04 14° 282° (WNW) 02:58:59 435.215
CUSAT 1 25 Jan 02:52:22 02:57:27 41° 287° (WNW) 03:03:53 437.405
DANDE 25 Jan 02:53:57 02:57:51 55° 93° (E) 03:03:06 436.750
STARS 25 Jan 03:05:24 03:08:47 22° 69° (ENE) 03:12:10 437.465
ITAMSAT 1 25 Jan 03:19:20 03:24:28 59° 286° (WNW) 03:29:35 435.822/435.867
AUBIESAT-1 25 Jan 03:20:48 03:25:01 73° 252° (WSW) 03:28:58 437.475
CUBESAT XI-V 25 Jan 03:24:25 03:28:47 39° 73° (ENE) 03:33:10 437.345
Gurwin Techsat 1B 25 Jan 03:24:42 03:25:54 11° 298° (WNW) 03:27:06 435.225
PHONESAT 2.4 25 Jan 03:24:52 03:27:02 49° 22° (NNE) 03:29:11 2401.200-2431.200
AO-7 25 Jan 03:34:46 03:43:10 89° 108° (ESE) 03:51:29 29.400- 29.500
Cosmos 2491 25 Jan 03:40:58 03:43:33 11° 297° (WNW) 03:46:10 435.465 / 435.565
RS-15 25 Jan 03:47:31 03:52:38 13° 8° (N) 03:57:44 29.354- 29.394
KKS-1 25 Jan 04:02:48 04:06:45 31° 262° (W) 04:10:43 437.445
ISS 25 Jan 04:03:53 04:06:22 20° 231° (SW) 04:08:50 145.825
AIST 2 25 Jan 04:29:21 04:31:04 12° 252° (WSW) 04:32:46 435.215
GOMX 1 25 Jan 04:33:49 04:37:03 21° 95° (E) 04:40:13 467.674
DANDE 25 Jan 04:40:06 04:41:31 11° 299° (WNW) 04:43:02 436.750
STARS 25 Jan 04:41:18 04:44:58 26° 263° (W) 04:48:38 437.465
Cosmos 2499 25 Jan 04:45:17 04:50:16 20° 71° (ENE) 04:55:14 435.465 / 435.565
BRITE-PL 25 Jan 04:56:44 05:01:19 64° 285° (WNW) 05:05:34 437.365/2234.400
PHONESAT 2.4 25 Jan 04:59:17 05:00:31 13° 214° (SW) 05:01:43 2401.200-2431.200
CUBESAT XI-V 25 Jan 05:03:16 05:06:15 17° 266° (W) 05:09:17 437.345
O/OREOS (USA 219) 25 Jan 05:03:32 05:07:57 61° 291° (WNW) 05:12:22 437.305
HORYU 2 25 Jan 05:06:02 05:10:28 62° 102° (ESE) 05:14:53 437.375
CUTE-I 25 Jan 05:08:54 05:13:03 23° 96° (E) 05:17:12 437.470
AO-7 25 Jan 05:29:40 05:34:48 18° 305° (NW) 05:39:57 29.400- 29.500
GONETS M04 25 Jan 05:39:00 05:47:26 46° 78° (ENE) 05:55:49
STRAND 1 25 Jan 05:41:55 05:46:25 33° 70° (ENE) 05:50:57 437.568
NOAA 15 25 Jan 05:42:35 05:47:46 51° 100° (E) 05:52:53 137.62
Cubesat XI-IV 25 Jan 05:52:59 05:58:17 63° 101° (ESE) 06:03:35 437.490
RS-15 25 Jan 06:00:28 06:11:07 32° 42° (NE) 06:21:24 29.354- 29.394
SO-50 25 Jan 06:07:17 06:12:01 74° 300° (WNW) 06:16:41 436.795
GOMX 1 25 Jan 06:11:41 06:15:05 24° 290° (WNW) 06:18:24 467.674
LilacSat-2 25 Jan 06:13:02 06:16:47 49° 285° (WNW) 06:20:33 437.200
DOVE 4 25 Jan 06:22:14 06:26:14 50° 285° (WNW) 06:30:17 437.250
Cosmos 2499 25 Jan 06:36:54 06:43:46 57° 268° (W) 06:50:43 435.465 / 435.565
NOAA 18 25 Jan 06:41:19 06:46:48 88° 284° (WNW) 06:52:16 137.9125
HORYU 2 25 Jan 06:45:29 06:46:26 11° 295° (WNW) 06:47:24 437.375
CUTE-I 25 Jan 06:48:15 06:53:08 37° 289° (WNW) 06:58:00 437.470
CUTE 1.7 + AOD 2 25 Jan 06:57:16 07:01:18 40° 98° (E) 07:05:19 437.475
HO-68 25 Jan 07:04:46 07:11:46 53° 101° (ESE) 07:18:42 435.675
CINEMA 3 25 Jan 07:10:43 07:14:59 70° 284° (WNW) 07:19:24 145.822/145.860
PCSat 25 Jan 07:17:01 07:20:10 15° 50° (NE) 07:23:18 145.827
STRAND 1 25 Jan 07:21:33 07:25:35 24° 264° (W) 07:29:38 437.568
COMPASS 1 25 Jan 07:22:01 07:25:47 32° 97° (E) 07:29:30 437.405
NOAA 15 25 Jan 07:23:43 07:27:03 17° 295° (WNW) 07:30:24 137.62
SEEDS 25 Jan 07:26:57 07:31:09 60° 100° (E) 07:35:19 437.485
CANX-2 25 Jan 07:27:31 07:31:48 70° 284° (WNW) 07:36:03 2200.000
FUNcube-1 25 Jan 07:27:35 07:29:02 11° 92° (E) 07:30:28 145.935
AAUSAT CUBESAT 2 25 Jan 07:27:43 07:31:18 27° 97° (E) 07:34:52 437.432
CUBEBUG 2 25 Jan 07:28:35 07:32:45 38° 98° (E) 07:37:01 437.445
Cubesat XI-IV 25 Jan 07:34:59 07:37:46 14° 296° (WNW) 07:40:34 437.490
GONETS M04 25 Jan 07:36:18 07:43:52 33° 275° (W) 07:51:26
UWE-3 25 Jan 07:45:22 07:49:30 37° 98° (E) 07:53:44 435.000/436.395/437.385
PRISM 25 Jan 07:47:38 07:51:17 30° 72° (ENE) 07:54:56 437.425
ZACube-1 25 Jan 07:51:55 07:55:38 25° 96° (E) 07:59:22 437.345
RS-15 25 Jan 08:12:36 08:24:53 78° 246° (WSW) 08:36:35 29.354- 29.394
UNISAT 6 25 Jan 08:17:27 08:20:28 19° 69° (ENE) 08:23:30 437.425
Oscar 11 25 Jan 08:17:40 08:21:47 40° 98° (E) 08:25:52 145.826/435.025
TIGRISAT 25 Jan 08:28:36 08:31:59 24° 71° (ENE) 08:35:24 435.000
CUTE 1.7 + AOD 2 25 Jan 08:34:27 08:36:45 14° 292° (WNW) 08:39:03 437.475
ANTELSAT 25 Jan 08:44:38 08:48:35 39° 73° (ENE) 08:52:34 437.575/2403.000
HUMSAT D 25 Jan 08:50:23 08:53:02 16° 94° (E) 08:55:39 437.325/437.525
